GW4082 Weather Reports


time (UTC)temp
C
wind
direction
speed
KPH
gust
KPH
rain 1hr
cm
rain 24hr
cm
rain mn
cm
humidity
%
barometer
mb
20260507091923 7 330 0.0 0.0 0.00 0.00 0.00 81 1011.6
20260507091420 7 330 0.0 0.0 0.00 0.00 0.00 81 1011.4
20260507090915 7 332 0.0 0.0 0.00 0.00 0.00 79 1011.5
20260507090412 7 332 0.0 0.0 0.00 0.00 0.00 79 1011.5
20260507085909 8 331 0.0 0.0 0.00 0.00 0.00 78 1011.4
20260507085406 8 331 0.0 0.0 0.00 0.00 0.00 78 1011.6
20260507084903 8 332 0.0 0.0 0.00 0.00 0.00 77 1011.5
20260507084359 8 335 0.0 0.0 0.00 0.00 0.00 75 1011.6
20260507083857 8 332 0.0 0.0 0.00 0.00 0.00 74 1011.4
20260507083353 8 330 0.0 3.2 0.00 0.00 0.00 74 1011.5
20260507082849 8 306 3.2 3.2 0.00 0.00 0.00 73 1011.4
20260507082345 8 334 1.6 3.2 0.00 0.00 0.00 73 1011.4
20260507081843 9 316 0.0 0.0 0.00 0.00 0.00 73 1011.3
20260507081338 9 323 3.2 3.2 0.00 0.00 0.00 73 1011.5
20260507080835 9 330 3.2 8.0 0.00 0.00 0.00 72 1011.4
20260507080331 9 316 3.2 3.2 0.00 0.00 0.00 73 1011.4
20260507075827 9 356 4.8 11.3 0.00 0.00 0.00 74 1011.4
20260507075323 9 338 1.6 3.2 0.00 0.00 0.00 74 1011.3
20260507074820 9 328 3.2 3.2 0.00 0.00 0.00 75 1011.3
20260507074317 9 321 1.6 8.0 0.00 0.00 0.00 75 1011.3
20260507073814 9 325 0.0 3.2 0.00 0.00 0.00 75 1011.4
20260507073311 9 315 3.2 3.2 0.00 0.00 0.00 75 1011.3
20260507072808 9 323 0.0 0.0 0.00 0.00 0.00 74 1011.3
20260507072307 9 319 0.0 0.0 0.00 0.00 0.00 74 1011.3
20260507071803 9 322 1.6 3.2 0.00 0.00 0.00 73 1011.5
20260507071259 9 331 0.0 3.2 0.00 0.00 0.00 73 1011.5
20260507070756 9 323 1.6 3.2 0.00 0.00 0.00 73 1011.5
20260507070253 10 325 1.6 3.2 0.00 0.00 0.00 72 1011.8
20260507065750 10 325 1.6 3.2 0.00 0.00 0.00 72 1011.6
20260507065247 10 325 1.6 3.2 0.00 0.00 0.00 72 1011.6
20260507064744 10 325 1.6 3.2 0.00 0.00 0.00 72 1011.6
20260507064243 10 315 8.0 11.3 0.00 0.00 0.00 71 1011.5
20260507063740 10 321 3.2 3.2 0.00 0.00 0.00 72 1011.4
20260507063236 10 332 0.0 0.0 0.00 0.00 0.00 73 1011.4
20260507062733 10 347 6.4 8.0 0.00 0.00 0.00 72 1011.5
20260507062231 10 347 6.4 8.0 0.00 0.00 0.00 72 1011.5
20260507061729 10 324 3.2 3.2 0.00 0.00 0.00 74 1011.6
20260507061226 10 345 3.2 11.3 0.00 0.00 0.00 74 1011.6
20260507060724 10 303 4.8 8.0 0.00 0.00 0.00 75 1011.7
20260507060221 11 319 1.6 3.2 0.00 0.00 0.00 76 1011.6
20260507055716 11 327 4.8 8.0 0.00 0.00 0.00 76 1011.6
20260507055212 11 324 1.6 3.2 0.00 0.00 0.00 77 1011.5
20260507054709 11 320 3.2 8.0 0.00 0.00 0.00 78 1011.5
20260507054206 11 317 3.2 8.0 0.00 0.00 0.00 77 1011.5
20260507053703 11 311 6.4 8.0 0.00 0.00 0.00 77 1011.5
20260507053201 11 311 6.4 11.3 0.00 0.00 0.00 79 1011.6
20260507052659 11 323 6.4 16.1 0.00 0.00 0.00 81 1011.5
20260507052155 11 312 8.0 11.3 0.00 0.00 0.00 83 1011.6
20260507051653 11 303 4.8 8.0 0.00 0.00 0.00 83 1011.6
20260507051149 11 320 3.2 8.0 0.00 0.00 0.00 82 1011.5
20260507050647 11 294 3.2 8.0 0.00 0.00 0.00 83 1011.4
20260507050143 11 298 6.4 8.0 0.00 0.00 0.00 84 1011.2
20260507045640 11 298 6.4 8.0 0.00 0.00 0.00 84 1011.3
20260507045137 11 325 1.6 3.2 0.00 0.00 0.00 84 1011.2
20260507044634 11 308 3.2 8.0 0.00 0.00 0.00 85 1011.2
20260507044131 10 291 6.4 11.3 0.00 0.00 0.00 88 1011.3
20260507043627 10 312 3.2 8.0 0.00 0.00 0.00 90 1011.4
20260507043124 10 325 0.0 0.0 0.00 0.00 0.00 91 1010.9
20260507042620 11 288 3.2 3.2 0.00 0.00 0.00 90 1011.1
20260507042115 11 288 3.2 3.2 0.00 0.00 0.00 90 1011.0
20260507041612 11 288 3.2 3.2 0.00 0.00 0.00 90 1011.1
20260507041104 11 288 3.2 3.2 0.00 0.00 0.00 90 1011.2
20260507040601 11 323 1.6 3.2 0.00 0.00 0.00 90 1011.3
20260507040057 10 299 0.0 3.2 0.00 0.94 0.94 90 1011.5
20260507035553 10 331 0.0 0.0 0.00 0.94 0.94 90 1011.1
20260507035049 11 325 0.0 3.2 0.00 0.94 0.94 90 1011.1
20260507034545 10 331 0.0 0.0 0.00 0.94 0.94 89 1010.9
20260507034043 10 327 0.0 3.2 0.00 0.94 0.94 90 1011.2
20260507033541 10 331 0.0 0.0 0.00 0.94 0.94 89 1011.0
20260507033038 10 1 1.6 3.2 0.00 0.94 0.94 90 1010.9
20260507032535 10 337 0.0 0.0 0.00 0.94 0.94 90 1011.2
20260507032032 10 337 0.0 0.0 0.00 0.94 0.94 90 1011.3
20260507031528 10 334 0.0 0.0 0.00 0.94 0.94 89 1011.3
20260507031025 10 333 0.0 0.0 0.00 0.94 0.94 89 1011.3
20260507030522 10 326 0.0 0.0 0.00 0.94 0.94 89 1011.2
20260507030020 10 329 0.0 0.0 0.00 0.94 0.94 89 1010.8
20260507025517 10 334 0.0 0.0 0.00 0.94 0.94 88 1010.8
20260507025015 11 334 0.0 0.0 0.00 0.94 0.94 88 1010.9
20260507024512 11 333 0.0 3.2 0.00 0.94 0.94 87 1010.8
20260507024009 11 314 0.0 0.0 0.00 0.94 0.94 87 1011.0
20260507023504 11 331 0.0 0.0 0.00 0.94 0.94 86 1011.1
20260507023001 11 342 0.0 3.2 0.00 0.94 0.94 86 1011.1
20260507022458 11 336 1.6 3.2 0.00 0.94 0.94 86 1010.9
20260507021953 11 344 3.2 8.0 0.00 0.94 0.94 86 1010.9
20260507021449 11 337 0.0 3.2 0.00 0.94 0.94 86 1011.1
20260507020947 11 359 3.2 11.3 0.00 0.94 0.94 86 1011.2
20260507020443 11 348 6.4 11.3 0.00 0.94 0.94 86 1011.4
20260507015940 11 7 1.6 3.2 0.00 0.94 0.94 86 1011.4
20260507015439 11 346 9.7 11.3 0.00 0.94 0.94 86 1011.5
20260507014935 11 3 0.0 8.0 0.00 0.94 0.94 86 1011.5
20260507014432 11 0 1.6 3.2 0.00 0.94 0.94 86 1011.5
20260507013923 11 336 6.4 8.0 0.00 0.94 0.94 86 1011.5
20260507013420 11 356 4.8 11.3 0.00 0.94 0.94 86 1011.5
20260507012918 12 1 3.2 3.2 0.00 0.94 0.94 86 1011.5
20260507012414 12 347 0.0 16.1 0.00 0.94 0.94 86 1011.2
20260507011911 12 18 6.4 11.3 0.00 0.94 0.94 86 1011.4
20260507011408 12 354 3.2 3.2 0.00 0.94 0.94 86 1011.4
20260507010907 12 0 1.6 3.2 0.00 0.94 0.94 86 1011.4
20260507010403 12 342 3.2 11.3 0.00 0.94 0.94 86 1011.4
20260507005900 12 345 3.2 3.2 0.00 0.94 0.94 86 1011.3
20260507005356 12 338 0.0 8.0 0.00 0.94 0.94 86 1011.2
20260507004853 12 343 3.2 8.0 0.00 0.94 0.94 86 1010.9
20260507004351 12 10 9.7 19.3 0.00 0.94 0.94 86 1011.0
20260507003850 12 20 12.9 19.3 0.00 0.94 0.94 86 1010.5
20260507003344 12 347 8.0 11.3 0.00 0.94 0.94 86 1010.5
20260507002839 12 21 6.4 8.0 0.00 0.94 0.94 87 1010.6
20260507002335 12 353 4.8 8.0 0.00 0.94 0.94 87 1010.4
20260507001833 12 347 3.2 11.3 0.00 0.94 0.94 87 1010.2
20260507001329 12 339 0.0 3.2 0.00 0.94 0.94 86 1010.3
20260507000826 12 350 4.8 8.0 0.00 0.94 0.94 85 1010.1
20260507000321 12 334 6.4 8.0 0.00 0.94 0.94 85 1010.0
20260506235818 12 343 0.0 3.2 0.00 0.94 0.94 86 1009.6
20260506235314 12 349 3.2 3.2 0.00 0.94 0.94 85 1009.5
20260506234811 12 345 3.2 8.0 0.00 0.94 0.94 85 1009.5
20260506234308 12 348 1.6 3.2 0.00 0.94 0.94 85 1009.5
20260506233806 12 337 3.2 8.0 0.00 0.94 0.94 85 1009.4
20260506233256 12 25 1.6 3.2 0.00 0.94 0.94 86 1009.3
20260506232753 12 6 0.0 8.0 0.00 0.94 0.94 85 1009.3
20260506232248 12 352 1.6 11.3 0.00 0.94 0.94 85 1009.2
20260506231745 13 353 6.4 11.3 0.00 0.94 0.94 85 1009.1
20260506231244 13 344 6.4 19.3 0.00 0.94 0.94 85 1009.2
20260506230740 13 350 3.2 11.3 0.00 0.94 0.94 86 1009.1
20260506230237 13 38 4.8 8.0 0.00 0.94 0.94 86 1008.8
20260506225733 13 353 3.2 8.0 0.00 0.94 0.94 85 1008.7
20260506225231 13 350 8.0 11.3 0.00 0.94 0.94 85 1008.6
20260506224727 13 356 3.2 11.3 0.00 0.94 0.94 85 1008.7
20260506224225 13 10 3.2 8.0 0.00 0.94 0.94 86 1008.3
20260506223721 13 337 1.6 11.3 0.00 0.94 0.94 85 1008.5
20260506223216 13 17 3.2 11.3 0.00 0.94 0.94 85 1008.5
20260506222713 14 339 1.6 8.0 0.00 0.94 0.94 86 1008.4
20260506222208 14 353 3.2 16.1 0.00 0.94 0.94 86 1008.2
20260506221707 14 320 4.8 11.3 0.00 0.94 0.94 87 1008.3
20260506221205 14 42 1.6 3.2 0.00 0.94 0.94 88 1008.0
20260506220701 14 2 11.3 16.1 0.00 0.94 0.94 87 1007.9
20260506220156 15 345 16.1 19.3 0.00 0.94 0.94 87 1007.8
20260506215653 15 325 3.2 11.3 0.00 0.94 0.94 87 1007.5
20260506215148 15 11 11.3 24.1 0.00 0.94 0.94 87 1007.6
20260506214645 15 0 11.3 16.1 0.00 0.94 0.94 86 1007.5
20260506214143 17 339 9.7 24.1 0.00 0.94 0.94 84 1007.2
20260506213641 17 333 4.8 8.0 0.00 0.94 0.94 86 1006.8
20260506213138 17 286 11.3 16.1 0.00 0.94 0.94 86 1006.7
20260506212635 17 277 12.9 16.1 0.00 0.94 0.94 86 1006.6
20260506212130 17 274 9.7 16.1 0.00 0.94 0.94 86 1006.5
20260506211626 18 275 6.4 16.1 0.00 0.94 0.94 86 1006.5
20260506211123 18 262 14.5 27.4 0.00 0.94 0.94 85 1006.4
20260506210620 18 334 9.7 19.3 0.00 0.94 0.94 86 1006.3
20260506210116 18 299 14.5 19.3 0.00 0.94 0.94 86 1006.3
20260506205613 18 272 8.0 16.1 0.00 0.94 0.94 87 1006.2
20260506205108 18 260 8.0 16.1 0.00 0.94 0.94 87 1006.1
20260506204606 18 278 6.4 19.3 0.00 0.94 0.94 87 1006.2
20260506204103 18 269 4.8 19.3 0.00 0.94 0.94 88 1006.0
20260506203601 18 267 11.3 16.1 0.00 0.94 0.94 88 1006.0
20260506203057 18 262 8.0 19.3 0.00 0.94 0.94 89 1006.1
20260506202555 18 273 9.7 16.1 0.00 0.94 0.94 90 1006.1
20260506202051 18 251 3.2 11.3 0.00 0.94 0.94 91 1005.9
20260506201549 17 259 8.0 11.3 0.00 0.94 0.94 91 1006.2
20260506201045 17 281 3.2 11.3 0.00 0.94 0.94 94 1005.8
20260506200541 17 272 8.0 16.1 0.00 0.94 0.94 95 1005.9
20260506200038 17 280 9.7 16.1 0.00 0.94 0.94 95 1005.9
20260506195535 17 326 6.4 11.3 0.00 0.94 0.94 94 1005.9
20260506195031 18 318 4.8 16.1 0.00 0.94 0.94 92 1005.9
20260506194529 18 269 8.0 24.1 0.00 0.94 0.94 89 1005.9
20260506194026 18 255 11.3 30.6 0.00 0.94 0.94 88 1005.9
20260506193523 18 298 3.2 8.0 0.00 0.94 0.94 88 1005.9
20260506193020 18 259 12.9 16.1 0.00 0.94 0.94 88 1005.9
20260506192517 18 288 9.7 24.1 0.00 0.94 0.94 89 1005.9
20260506192013 18 279 12.9 16.1 0.00 0.94 0.94 88 1006.0
20260506191510 18 274 9.7 19.3 0.00 0.94 0.94 88 1005.9
20260506191006 18 287 6.4 19.3 0.00 0.94 0.94 88 1005.8
20260506190503 18 304 8.0 19.3 0.00 0.94 0.94 88 1006.0
20260506185959 18 261 12.9 24.1 0.00 0.94 0.94 88 1005.9
20260506185457 18 256 9.7 19.3 0.00 0.94 0.94 88 1005.9
20260506184953 18 310 8.0 19.3 0.00 0.94 0.94 88 1006.2
20260506184451 18 259 11.3 24.1 0.00 0.94 0.94 88 1005.9
20260506183948 18 236 8.0 16.1 0.00 0.94 0.94 90 1006.0
20260506183443 18 249 9.7 24.1 0.00 0.94 0.94 90 1006.0
20260506182941 18 252 11.3 19.3 0.00 0.94 0.94 91 1005.8
20260506182438 18 268 4.8 16.1 0.00 0.94 0.94 94 1006.0
20260506181935 17 32 3.2 8.0 0.00 0.94 0.94 94 1005.9
20260506181433 17 268 8.0 11.3 0.00 0.94 0.94 94 1006.2
20260506180929 17 301 8.0 11.3 0.00 0.94 0.94 94 1006.2
20260506180426 17 215 4.8 11.3 0.00 0.94 0.94 96 1006.4
20260506175923 16 297 3.2 8.0 0.00 0.94 0.94 96 1006.2
20260506175420 16 312 3.2 8.0 0.00 0.94 0.94 97 1006.4
20260506174916 16 275 4.8 8.0 0.00 0.94 0.94 98 1006.3
20260506174414 16 280 8.0 11.3 0.00 0.94 0.94 98 1006.5
20260506173911 16 279 6.4 16.1 0.00 0.94 0.94 99 1006.2
20260506173408 16 310 3.2 8.0 0.00 0.94 0.94 99 1006.3
20260506172905 16 268 4.8 8.0 0.00 0.94 0.94 99 1006.2
20260506172401 15 299 6.4 11.3 0.13 0.94 0.94 99 1006.5
20260506171853 15 291 3.2 8.0 0.13 0.94 0.94 99 1006.6
20260506171351 15 299 3.2 8.0 0.00 0.91 0.91 99 1006.3
20260506170848 15 310 1.6 3.2 0.00 0.91 0.91 99 1006.3
20260506170344 15 316 3.2 8.0 0.00 0.91 0.91 99 1006.5
20260506165843 15 320 0.0 8.0 0.18 0.91 0.91 99 1006.7
20260506165340 15 295 4.8 8.0 0.18 0.91 0.91 99 1006.7
20260506164836 15 293 4.8 8.0 0.00 0.89 0.89 99 1006.7
20260506164333 15 285 4.8 8.0 0.00 0.89 0.89 99 1006.6
20260506163826 15 292 8.0 11.3 0.00 0.89 0.89 99 1006.7
20260506163325 15 326 3.2 8.0 0.00 0.89 0.89 98 1006.5
20260506162815 15 295 3.2 3.2 0.00 0.89 0.89 98 1006.8
20260506162314 15 315 1.6 3.2 0.00 0.89 0.89 98 1006.7
20260506161810 15 297 3.2 3.2 0.00 0.89 0.89 98 1006.7
20260506161307 15 312 0.0 3.2 0.00 0.89 0.89 98 1006.8
20260506160800 15 303 0.0 3.2 0.00 0.89 0.89 98 1006.9
20260506160256 15 321 0.0 3.2 0.00 0.89 0.89 98 1006.9
20260506155755 15 323 0.0 3.2 0.00 0.89 0.89 98 1006.7
20260506155251 15 320 1.6 3.2 0.00 0.89 0.89 98 1006.7
20260506153358 15 309 3.2 3.2 0.00 0.89 0.89 98 1006.5
20260506152855 15 302 3.2 3.2 0.00 0.89 0.89 98 1006.5
20260506152352 15 262 3.2 3.2 0.00 0.89 0.89 98 1006.3
20260506151850 15 320 0.0 8.0 0.00 0.89 0.89 98 1006.4
20260506151347 15 312 0.0 8.0 0.00 0.89 0.89 98 1006.3
20260506150844 15 269 3.2 11.3 0.18 0.89 0.89 98 1006.2
20260506150341 15 275 3.2 3.2 0.18 0.89 0.89 98 1006.3
20260506145837 15 293 6.4 8.0 0.18 0.86 0.86 98 1006.3
20260506145334 15 296 4.8 8.0 0.18 0.86 0.86 98 1006.5
20260506144832 15 309 3.2 3.2 0.00 0.81 0.81 98 1006.5
20260506144328 15 234 0.0 3.2 0.13 0.81 0.81 98 1006.5
20260506143826 15 243 3.2 8.0 0.13 0.81 0.81 98 1006.9
20260506143323 15 322 0.0 3.2 0.18 0.81 0.81 98 1006.8
20260506142821 15 321 0.0 8.0 0.18 0.81 0.81 98 1006.9
20260506142319 15 347 0.0 3.2 0.00 0.76 0.76 98 1006.9
20260506141817 15 322 0.0 8.0 0.00 0.76 0.76 98 1006.7
20260506141315 15 317 0.0 3.2 0.18 0.76 0.76 98 1006.8
20260506140813 15 310 1.6 3.2 0.18 0.76 0.76 98 1006.6
20260506140309 15 305 3.2 8.0 0.13 0.74 0.74 98 1006.5
20260506135806 15 292 3.2 3.2 0.48 0.74 0.74 98 1006.6
20260506135305 15 326 0.0 3.2 0.53 0.71 0.71 97 1006.7
20260506134759 15 315 0.0 3.2 0.30 0.66 0.66 97 1006.7
20260506134255 15 309 3.2 3.2 0.13 0.64 0.64 97 1006.5
20260506133753 15 322 0.0 3.2 0.18 0.61 0.61 97 1006.7
20260506133249 15 310 4.8 8.0 0.18 0.61 0.61 97 1006.6
20260506132746 15 323 0.0 3.2 0.18 0.58 0.58 97 1006.6
20260506132244 15 312 0.0 3.2 0.00 0.56 0.56 97 1006.7
20260506131741 14 306 4.8 8.0 0.18 0.56 0.56 97 1006.8
20260506131237 14 315 1.6 3.2 0.00 0.51 0.51 97 1006.6
20260506130734 15 312 3.2 8.0 0.13 0.51 0.51 97 1006.7
20260506130231 14 290 3.2 8.0 0.30 0.51 0.51 97 1006.6
20260506125729 14 324 0.0 16.1 0.36 0.51 0.51 97 1006.7
20260506125227 14 322 0.0 3.2 0.48 0.46 0.46 97 1006.6
20260506124725 14 332 0.0 0.0 0.48 0.43 0.43 97 1006.8
20260506124222 14 321 0.0 0.0 0.36 0.38 0.38 97 1007.0
20260506123719 14 319 0.0 3.2 0.36 0.36 0.36 97 1007.2
20260506123218 14 318 0.0 3.2 0.30 0.33 0.33 97 1007.2
20260506122715 14 316 0.0 0.0 0.30 0.30 0.30 97 1007.3
20260506122212 15 313 1.6 3.2 0.53 0.28 0.28 97 1007.4
20260506121710 15 318 0.0 0.0 0.30 0.23 0.23 97 1007.5
20260506121206 15 313 1.6 3.2 0.13 0.18 0.18 97 1007.4
20260506120704 15 310 3.2 3.2 0.18 0.18 0.18 97 1007.4
20260506120201 15 324 0.0 0.0 0.18 0.18 0.18 98 1007.3
20260506115659 15 330 0.0 0.0 0.00 0.15 0.15 98 1007.0
20260506115157 15 328 0.0 0.0 0.18 0.15 0.15 98 1006.9
20260506114654 15 332 0.0 0.0 0.36 0.15 0.15 98 1006.8
20260506114152 15 336 0.0 0.0 0.18 0.10 0.10 97 1006.8
20260506113650 15 322 0.0 0.0 0.00 0.08 0.08 97 1006.9
20260506113147 15 331 0.0 0.0 0.00 0.08 0.08 97 1006.8
20260506112643 15 332 0.0 3.2 0.13 0.08 0.08 97 1006.7
20260506112141 14 328 0.0 0.0 0.18 0.05 0.05 96 1006.8
20260506111638 15 339 0.0 0.0 0.18 0.05 0.05 96 1006.9
20260506111136 15 328 0.0 0.0 0.18 0.03 0.03 96 1006.8
20260506110633 15 338 0.0 0.0 0.18 0.03 0.03 96 1006.8
20260506110131 15 339 0.0 0.0 0.00 0.00 0.00 95 1006.6
20260506105627 15 331 0.0 0.0 0.00 0.00 0.00 95 1006.6
20260506105124 15 327 0.0 0.0 0.00 0.00 0.00 95 1006.6
20260506104622 15 335 0.0 0.0 0.00 0.00 0.00 94 1006.2
20260506104119 15 332 0.0 0.0 0.00 0.00 0.00 94 1006.4
20260506103617 14 331 0.0 0.0 0.00 0.00 0.00 94 1006.3
20260506103113 14 331 0.0 0.0 0.00 0.00 0.00 94 1006.3
20260506102612 15 337 0.0 0.0 0.00 0.00 0.00 94 1006.5
20260506102109 15 327 0.0 0.0 0.00 0.00 0.00 94 1006.4
20260506101605 15 324 0.0 3.2 0.00 0.00 0.00 94 1006.2
20260506101102 15 320 0.0 0.0 0.00 0.00 0.00 94 1006.2
20260506100601 15 326 0.0 0.0 0.00 0.00 0.00 94 1006.0
20260506100058 15 339 0.0 0.0 0.00 0.00 0.00 93 1006.1
20260506095557 15 332 0.0 0.0 0.00 0.00 0.00 93 1005.9
20260506095053 15 326 0.0 0.0 0.00 0.00 0.00 92 1006.2
20260506094551 15 333 0.0 0.0 0.00 0.00 0.00 91 1006.1
20260506094048 15 331 0.0 0.0 0.00 0.00 0.00 91 1005.8
20260506093547 15 336 0.0 0.0 0.00 0.00 0.00 92 1005.8
20260506093044 15 330 0.0 0.0 0.00 0.00 0.00 92 1006.1
20260506092541 15 319 0.0 3.2 0.00 0.00 0.00 92 1006.0
20260506092038 15 327 0.0 0.0 0.00 0.00 0.00 91 1006.1